| time (UTC) | temp C | wind direction | speed KPH | gust KPH | rain 1hr cm | rain 24hr cm | rain mn cm | humidity % | barometer mb |
| 20260905052252 | 20 | 278 | 4.8 | 17.7 | 0.00 | 0.00 | 0.00 | 38 | 1008.2 |
| 20260905050740 | 20 | 286 | 9.7 | 9.7 | 0.00 | 0.00 | 0.00 | 38 | 1008.0 |
| 20260905045243 | 21 | 282 | 9.7 | 20.9 | 0.00 | 0.00 | 0.00 | 37 | 1008.3 |
| 20260905043808 | 21 | 283 | 14.5 | 20.9 | 0.00 | 0.00 | 0.00 | 37 | 1007.8 |
| 20260905042258 | 21 | 304 | 14.5 | 22.5 | 0.00 | 0.00 | 0.00 | 37 | 1008.1 |
| 20260905040743 | 22 | 294 | 19.3 | 24.1 | 0.00 | 0.00 | 0.00 | 37 | 1008.1 |
| 20260905035313 | 22 | 288 | 14.5 | 19.3 | 0.00 | 0.00 | 0.00 | 37 | 1008.4 |
| 20260905033743 | 23 | 298 | 17.7 | 24.1 | 0.00 | 0.00 | 0.00 | 36 | 1008.1 |
| 20260905032253 | 23 | 305 | 8.0 | 12.9 | 0.00 | 0.00 | 0.00 | 35 | 1008.1 |
| 20260905030740 | 23 | 298 | 16.1 | 16.1 | 0.00 | 0.00 | 0.00 | 35 | 1007.9 |
| 20260905025244 | 25 | 296 | 9.7 | 17.7 | 0.00 | 0.00 | 0.00 | 34 | 1007.8 |
| 20260905023750 | 26 | 292 | 16.1 | 22.5 | 0.00 | 0.00 | 0.00 | 33 | 1007.6 |
| 20260905022320 | 27 | 288 | 22.5 | 25.7 | 0.00 | 0.00 | 0.00 | 32 | 1007.4 |
| 20260905020742 | 27 | 294 | 16.1 | 32.2 | 0.00 | 0.00 | 0.00 | 31 | 1007.0 |
| 20260905015247 | 28 | 285 | 19.3 | 32.2 | 0.00 | 0.00 | 0.00 | 30 | 1006.6 |
| 20260905013754 | 28 | 284 | 19.3 | 19.3 | 0.00 | 0.00 | 0.00 | 32 | 1006.6 |
| 20260905012258 | 30 | 122 | 0.0 | 1.6 | 0.00 | 0.00 | 0.00 | 28 | 1006.2 |
| 20260905010803 | 32 | 122 | 0.0 | 0.0 | 0.00 | 0.00 | 0.00 | 27 | 1006.2 |
| 20260905005255 | 33 | 122 | 0.0 | 1.6 | 0.00 | 0.00 | 0.00 | 25 | 1005.8 |
| 20260905003742 | 33 | 122 | 0.0 | 4.8 | 0.00 | 0.00 | 0.00 | 26 | 1005.7 |
| 20260905002254 | 33 | 122 | 3.2 | 6.4 | 0.00 | 0.00 | 0.00 | 24 | 1005.5 |